Nairobi Wilson, Kenya

12:46 PM EAT on June 27, 2017 (GMT +0300)
Nairobi Wilson

Weather History for HKNW - November, 2012

Change the Weather History Date:

Saturday, November 10, 2012

  Actual Average Record
Temperature  
Mean Temperature 66 °F -  
Max Temperature 73 °F 71 °F 77 °F (2004)
Min Temperature 60 °F 61 °F 60 °F (2004)
Cooling Degree Days 2    
Growing Degree Days 16 (Base 50)    
Moisture  
Dew Point 60 °F    
Average Humidity 80    
Maximum Humidity 94    
Minimum Humidity 61    
Precipitation  
Precipitation 0.00 in - - ()
Sea Level Pressure  
Sea Level Pressure 30.13 in    
Wind  
Wind Speed 6 mph ()    
Max Wind Speed 23 mph    
Max Gust Speed -    
Visibility 6.2 miles    
Events      
Averages and records for this station are not official NWS values.
T = Trace of Precipitation, MM = Missing Value Source: Averaged Metar Reports

Daily Weather History Graph

Daily Weather History Graph

Search for Another Location

Airport or City:

Trip Planner

Search our weather history database for the weather conditions in past years. The results will help you decide how hot, cold, wet, or windy it might be!

Date:

Astronomy

Nov. 10, 2012 Rise Set
Actual Time 6:11 AM EAT 6:21 PM EAT
Civil Twilight 5:49 AM EAT 6:43 PM EAT
Nautical Twilight 5:24 AM EAT 7:08 PM EAT
Astronomical Twilight 4:59 AM EAT 7:34 PM EAT
Moon 2:46 AM EAT (11/10) 3:11 PM EAT (11/10)
Length of Visible Light 12h 53m
Length of Day
12h 10m
Waning Crescent, 17% of the Moon is Illuminated
Nov 10
Waning Crescent
Nov 14
New
Nov 20
First Quarter
Nov 28
Full
Dec 6
Last Quarter

Hourly Weather History & Observations

Time (EAT) Temp. Dew Point Humidity Pressure Visibility Wind Dir Wind Speed Gust Speed Precip Events Conditions
12:00 AM 62.6 °F 59.0 °F 88% 30.15 in 6.2 mi NNE 8.1 mph - N/A   Mostly Cloudy
1:00 AM 62.6 °F 59.0 °F 88% 30.12 in 6.2 mi NE 5.8 mph - N/A   Mostly Cloudy
3:00 AM 62.6 °F 57.2 °F 82% 30.09 in 6.2 mi Calm Calm - N/A   Mostly Cloudy
4:00 AM 62.6 °F 59.0 °F 88% 30.09 in 6.2 mi Calm Calm - N/A   Scattered Clouds
5:00 AM 60.8 °F 59.0 °F 94% 30.12 in 6.2 mi Calm Calm - N/A   Mostly Cloudy
6:00 AM 60.8 °F 59.0 °F 94% 30.12 in 6.2 mi Calm Calm - N/A   Mostly Cloudy
7:00 AM 60.8 °F 59.0 °F 94% 30.15 in 6.2 mi Calm Calm - N/A   Scattered Clouds
8:00 AM 66.2 °F 60.8 °F 83% 30.15 in 6.2 mi Calm Calm - N/A   Mostly Cloudy
9:00 AM 66.2 °F 60.8 °F 83% 30.18 in 6.2 mi Calm Calm - N/A   Mostly Cloudy
10:00 AM 68.0 °F 59.0 °F 73% 30.18 in 6.2 mi ENE 6.9 mph - N/A   Mostly Cloudy
11:00 AM 68.0 °F 60.8 °F 78% 30.18 in 6.2 mi East 18.4 mph - N/A   Mostly Cloudy
12:00 PM 69.8 °F 59.0 °F 68% 30.15 in 6.2 mi ENE 18.4 mph - N/A   Mostly Cloudy
1:00 PM 68.0 °F 60.8 °F 78% 30.15 in 6.2 mi ENE 9.2 mph - N/A   Mostly Cloudy
2:00 PM 71.6 °F 59.0 °F 64% 30.09 in 6.2 mi East 8.1 mph - N/A   Mostly Cloudy
3:00 PM 73.4 °F 59.0 °F 61% 30.06 in - ENE 11.5 mph - N/A   Mostly Cloudy
4:00 PM 73.4 °F 59.0 °F 61% 30.06 in 6.2 mi ENE 15.0 mph - N/A   Mostly Cloudy
5:00 PM 73.4 °F 59.0 °F 61% 30.04 in 6.2 mi ENE 17.3 mph - N/A   Mostly Cloudy
6:00 PM 71.6 °F 59.0 °F 64% 30.06 in 6.2 mi East 23.0 mph - N/A   Mostly Cloudy
7:00 PM 68.0 °F 60.8 °F 78% 30.09 in 6.2 mi East 8.1 mph - N/A   Mostly Cloudy
8:00 PM 66.2 °F 60.8 °F 83% 30.15 in 6.2 mi East 5.8 mph - N/A   Mostly Cloudy
9:00 PM 64.4 °F 60.8 °F 88% 30.18 in 6.2 mi East 20.7 mph - N/A   Mostly Cloudy
10:00 PM 64.4 °F 60.8 °F 88% 30.18 in 6.2 mi ENE 9.2 mph - N/A   Mostly Cloudy
11:00 PM 62.6 °F 60.8 °F 94% 30.18 in 6.2 mi East 6.9 mph - N/A   Mostly Cloudy